FW9827 Weather Reports


Display with metric or nautical units.
time (UTC)temp
F
wind
direction
speed
MPH
gust
MPH
rain 1hr
in
rain 24hr
in
rain mn
in
humidity
%
barometer
mb
20260506023042 54 178 5.0 14.0 0.00 0.00 0.00 80 1009.7
20260506021540 55 183 4.0 11.0 0.00 0.00 0.00 79 1010.1
20260506020040 55 190 4.0 11.0 0.00 0.00 0.00 78 1009.9
20260506014537 56 206 4.0 16.0 0.00 0.00 0.00 77 1009.9
20260506013035 56 166 3.0 13.0 0.00 0.00 0.00 76 1010.0
20260506011559 56 197 3.0 14.0 0.00 0.00 0.00 77 1009.5
20260506010043 56 193 6.0 16.0 0.00 0.00 0.00 78 1009.5
20260506004557 56 168 3.0 10.0 0.00 0.00 0.00 76 1009.1
20260506003039 57 189 3.0 12.0 0.00 0.00 0.00 76 1008.8
20260506001537 57 182 2.0 11.0 0.00 0.00 0.00 75 1008.7
20260505234543 55 206 7.0 27.0 0.00 0.00 0.00 79 1008.8
20260505233040 54 251 9.0 31.0 0.00 0.00 0.00 78 1008.7
20260505231541 55 226 8.0 23.0 0.00 0.00 0.00 78 1006.7
20260505230057 56 205 11.0 24.0 0.00 0.00 0.00 77 1006.4
20260505224540 57 200 8.0 28.0 0.00 0.00 0.00 74 1006.3
20260505223038 58 213 8.0 23.0 0.00 0.00 0.00 73 1005.7
20260505221535 58 186 8.0 24.0 0.00 0.00 0.00 73 1005.8
20260505220043 59 196 7.0 25.0 0.00 0.00 0.00 73 1005.8
20260505214540 59 186 7.0 25.0 0.00 0.00 0.00 72 1005.7
20260505213038 61 210 8.0 24.0 0.00 0.00 0.00 69 1005.9
20260505211540 62 162 8.0 19.0 0.00 0.00 0.00 68 1005.7
20260505210042 62 225 4.0 17.0 0.00 0.00 0.00 69 1005.9
20260505204549 62 162 6.0 15.0 0.00 0.00 0.00 68 1005.9
20260505203052 63 186 4.0 21.0 0.00 0.00 0.00 68 1005.9
20260505201535 63 163 4.0 15.0 0.00 0.00 0.00 69 1006.1
20260505200046 62 154 5.0 15.0 0.00 0.00 0.00 70 1006.2
20260505194553 62 181 5.0 16.0 0.00 0.00 0.00 70 1006.6
20260505193042 62 171 5.0 16.0 0.00 0.00 0.00 72 1006.9
20260505191553 61 150 6.0 21.0 0.00 0.00 0.00 72 1006.9
20260505190040 62 159 5.0 15.0 0.00 0.00 0.00 71 1007.1
20260505184537 62 220 3.0 17.0 0.00 0.00 0.00 73 1007.3
20260505183035 61 180 5.0 16.0 0.00 0.00 0.00 73 1007.4
20260505181537 60 205 5.0 11.0 0.00 0.00 0.00 73 1007.6
20260505180046 60 171 3.0 15.0 0.00 0.00 0.00 74 1007.8
20260505174541 61 198 5.0 14.0 0.00 0.00 0.00 73 1008.2
20260505173038 61 202 5.0 14.0 0.00 0.00 0.00 72 1008.5
20260505171534 60 133 4.0 11.0 0.00 0.00 0.00 73 1008.4
20260505170042 61 179 2.0 11.0 0.00 0.00 0.00 73 1008.6
20260505164542 61 211 5.0 14.0 0.00 0.00 0.00 73 1008.8
20260505163039 60 207 5.0 11.0 0.00 0.00 0.00 73 1009.1
20260505161536 60 205 8.0 18.0 0.00 0.00 0.00 73 1009.2
20260505153042 55 186 7.0 19.0 0.00 0.00 0.00 82 1009.8
20260505151541 55 215 4.0 15.0 0.00 0.00 0.00 82 1009.8
20260505124552 55 211 7.0 18.0 0.00 0.00 0.00 79 1009.6
20260505123053 54 190 6.0 13.0 0.00 0.00 0.00 80 1009.6
20260505121607 53 153 6.0 15.0 0.00 0.00 0.00 81 1009.8
20260505120045 53 142 7.0 21.0 0.00 0.00 0.00 82 1010.1
20260505114542 52 186 3.0 10.0 0.00 0.00 0.00 84 1009.9
20260505113046 51 200 3.0 11.0 0.00 0.00 0.00 87 1010.0
20260505111545 49 189 2.0 10.0 0.00 0.00 0.00 89 1010.0
20260505101540 48 215 1.0 5.0 0.00 0.00 0.00 87 1009.6
20260505100054 48 186 2.0 8.0 0.00 0.00 0.00 87 1009.6
20260505094543 48 186 2.0 9.0 0.00 0.00 0.00 88 1009.6
20260505093036 47 194 1.0 7.0 0.00 0.00 0.00 87 1009.6
20260505091550 48 183 1.0 6.0 0.00 0.00 0.00 86 1009.6
20260505090053 48 135 1.0 11.0 0.00 0.00 0.00 86 1009.7
20260505084535 48 220 1.0 7.0 0.00 0.00 0.00 86 1009.8
20260505083048 48 118 1.0 6.0 0.00 0.00 0.00 86 1009.6
20260505081542 48 194 1.0 7.0 0.00 0.00 0.00 85 1009.8
20260505080045 48 222 2.0 7.0 0.00 0.00 0.00 84 1009.9
20260505074539 48 148 2.0 7.0 0.00 0.00 0.00 84 1009.9
20260505073055 49 183 3.0 7.0 0.00 0.00 0.00 83 1009.7
20260505071544 49 161 1.0 6.0 0.00 0.00 0.00 83 1009.7
20260505070040 49 194 3.0 9.0 0.00 0.00 0.00 83 1009.7
20260505064536 49 184 1.0 5.0 0.00 0.00 0.00 81 1009.6
20260505063046 49 155 1.0 5.0 0.00 0.00 0.00 80 1009.6
20260505061539 50 197 2.0 6.0 0.00 0.00 0.00 79 1009.6
20260505060045 50 192 2.0 8.0 0.00 0.00 0.00 79 1009.6
20260505054610 50 207 3.0 9.0 0.00 0.00 0.00 78 1009.6
20260505053046 51 193 1.0 10.0 0.00 0.00 0.00 77 1009.6
20260505051542 51 221 3.0 13.0 0.00 0.00 0.00 76 1009.6
20260505041547 54 212 3.0 8.0 0.00 0.00 0.00 73 1008.9
20260505040042 54 144 3.0 7.0 0.00 0.00 0.00 73 1008.8
20260505034536 54 185 1.0 10.0 0.00 0.00 0.00 72 1009.0
20260505033042 54 182 1.0 9.0 0.00 0.00 0.00 72 1008.8
20260505031543 54 184 1.0 7.0 0.00 0.00 0.00 73 1008.8
20260505030053 54 209 2.0 11.0 0.00 0.00 0.00 74 1008.8
20260505024534 53 161 3.0 12.0 0.00 0.00 0.00 74 1008.8